• In Lithuania
  • List of Countries
  • For 7 days
  • Water Temperature
  • Satellite Maps
  • Weather Map
  • Weather Widgets
  • user-avatar
    Login

    Hourly Weather Novoragulinskiy

    Today, 19 October, Friday

    Time Temperature Precipitation Wind Pressure Humidity
    00:00 +14°C° 0 mm 3 mps 761 mmHg 76%
    01:00 +14°C° 0 mm 3 mps 761 mmHg 79%
    02:00 +13°C° 0 mm 3 mps 761 mmHg 83%
    03:00 +13°C° 0 mm 3 mps 761 mmHg 86%
    04:00 +13°C° 0 mm 3 mps 761 mmHg 88%
    05:00 +12°C° 0 mm 3 mps 761 mmHg 89%
    06:00 +12°C° 0 mm 3 mps 761 mmHg 91%
    07:00 +14°C° 0 mm 4 mps 761 mmHg 86%
    08:00 +15°C° 0 mm 5 mps 761 mmHg 80%
    09:00 +16°C° 0 mm 6 mps 761 mmHg 75%
    10:00 +17°C° 0 mm 6 mps 761 mmHg 69%
    11:00 +20°C° 0 mm 6 mps 761 mmHg 64%
    12:00 +21°C° 0 mm 6 mps 761 mmHg 58%
    13:00 +21°C° 0 mm 6 mps 760 mmHg 56%
    14:00 +22°C° 0 mm 6 mps 760 mmHg 54%
    15:00 +22°C° 0 mm 6 mps 760 mmHg 52%
    16:00 +21°C° 0 mm 5 mps 760 mmHg 57%
    17:00 +20°C° 0 mm 5 mps 759 mmHg 61%
    18:00 +19°C° 0 mm 4 mps 759 mmHg 66%
    19:00 +17°C° 0 mm 5 mps 759 mmHg 69%
    20:00 +17°C° 0 mm 5 mps 759 mmHg 72%
    21:00 +16°C° 0 mm 6 mps 759 mmHg 75%
    22:00 +15°C° 0 mm 5 mps 759 mmHg 79%
    23:00 +15°C° 0 mm 5 mps 759 mmHg 83%

    Tomorrow, 20 October, Saturday

    Time Temperature Precipitation Wind Pressure Humidity
    00:00 +14°C° 0 mm 4 mps 758 mmHg 87%
    01:00 +14°C° 0 mm 4 mps 758 mmHg 89%
    02:00 +13°C° 0 mm 4 mps 758 mmHg 92%
    03:00 +13°C° 0 mm 3 mps 758 mmHg 94%
    04:00 +13°C° 0 mm 3 mps 758 mmHg 93%
    05:00 +13°C° 0 mm 3 mps 758 mmHg 91%
    06:00 +14°C° 0 mm 4 mps 758 mmHg 90%
    07:00 +14°C° 0 mm 4 mps 758 mmHg 86%
    08:00 +15°C° 0 mm 4 mps 758 mmHg 82%
    09:00 +17°C° 0 mm 4 mps 758 mmHg 78%
    10:00 +18°C° 0 mm 4 mps 758 mmHg 73%
    11:00 +19°C° 0 mm 3 mps 758 mmHg 68%
    12:00 +20°C° 0 mm 3 mps 757 mmHg 63%
    13:00 +20°C° 0 mm 3 mps 757 mmHg 60%
    14:00 +21°C° 0 mm 3 mps 757 mmHg 57%
    15:00 +23°C° 0 mm 2 mps 756 mmHg 53%
    16:00 +20°C° 0 mm 2 mps 756 mmHg 58%
    17:00 +19°C° 0 mm 2 mps 756 mmHg 64%
    18:00 +18°C° 0 mm 2 mps 756 mmHg 69%
    19:00 +17°C° 0 mm 2 mps 757 mmHg 71%
    20:00 +18°C° 0 mm 1 mps 757 mmHg 74%
    21:00 +18°C° 0 mm 1 mps 757 mmHg 76%
    22:00 +16°C° 0 mm 1 mps 756 mmHg 78%
    23:00 +16°C° 0 mm 1 mps 756 mmHg 79%

    Day after tomorrow, 21 October, Sunday

    Time Temperature Precipitation Wind Pressure Humidity
    00:00 +16°C° 0 mm 2 mps 756 mmHg 81%
    01:00 +16°C° 0 mm 2 mps 756 mmHg 82%
    02:00 +15°C° 0 mm 2 mps 756 mmHg 84%
    03:00 +15°C° 0 mm 2 mps 756 mmHg 85%
    04:00 +15°C° 0 mm 2 mps 756 mmHg 86%
    05:00 +15°C° 0 mm 2 mps 756 mmHg 87%
    06:00 +14°C° 0 mm 2 mps 756 mmHg 89%
    07:00 +16°C° 0 mm 2 mps 756 mmHg 84%
    08:00 +17°C° 0 mm 2 mps 756 mmHg 79%
    09:00 +18°C° 0 mm 3 mps 757 mmHg 75%
    10:00 +19°C° 0 mm 3 mps 757 mmHg 68%
    11:00 +21°C° 0 mm 3 mps 756 mmHg 61%
    12:00 +22°C° 0 mm 3 mps 756 mmHg 55%
    13:00 +23°C° 0 mm 4 mps 756 mmHg 53%
    14:00 +23°C° 0 mm 4 mps 756 mmHg 51%
    15:00 +23°C° 0 mm 4 mps 756 mmHg 49%
    16:00 +22°C° 0 mm 4 mps 756 mmHg 54%
    17:00 +21°C° 0 mm 4 mps 756 mmHg 58%
    18:00 +20°C° 0 mm 3 mps 756 mmHg 62%
    19:00 +19°C° 0 mm 3 mps 756 mmHg 64%
    20:00 +19°C° 0 mm 4 mps 756 mmHg 66%
    21:00 +18°C° 0 mm 4 mps 756 mmHg 68%
    22:00 +17°C° 0 mm 4 mps 756 mmHg 70%
    23:00 +17°C° 0 mm 4 mps 756 mmHg 72%

    22 October, Monday

    Time Temperature Precipitation Wind Pressure Humidity
    00:00 +16°C° 0 mm 3 mps 756 mmHg 74%
    01:00 +16°C° 0 mm 3 mps 756 mmHg 77%
    02:00 +14°C° 0 mm 3 mps 756 mmHg 80%
    03:00 +14°C° 0 mm 3 mps 756 mmHg 83%
    04:00 +14°C° 0 mm 3 mps 756 mmHg 83%
    05:00 +14°C° 0 mm 3 mps 756 mmHg 82%
    06:00 +13°C° 0 mm 3 mps 756 mmHg 81%
    07:00 +14°C° 0 mm 4 mps 756 mmHg 71%
    08:00 +15°C° 0 mm 4 mps 757 mmHg 62%
    09:00 +17°C° 0 mm 4 mps 757 mmHg 52%
    10:00 +18°C° 0 mm 4 mps 757 mmHg 48%
    11:00 +20°C° 0 mm 5 mps 757 mmHg 45%
    12:00 +21°C° 0 mm 5 mps 757 mmHg 41%
    13:00 +21°C° 0 mm 4 mps 757 mmHg 40%
    14:00 +22°C° 0 mm 4 mps 757 mmHg 39%
    15:00 +22°C° 0 mm 4 mps 756 mmHg 37%
    16:00 +21°C° 0 mm 3 mps 757 mmHg 38%
    17:00 +20°C° 0 mm 3 mps 757 mmHg 39%
    18:00 +19°C° 0 mm 2 mps 757 mmHg 39%
    19:00 +19°C° 0.1 mm 2 mps 757 mmHg 40%
    20:00 +18°C° 0.1 mm 3 mps 757 mmHg 41%
    21:00 +18°C° 0.1 mm 3 mps 757 mmHg 42%
    22:00 +18°C° 0 mm 3 mps 757 mmHg 45%
    23:00 +17°C° 0 mm 3 mps 757 mmHg 48%

    23 October, Tuesday

    Time Temperature Precipitation Wind Pressure Humidity
    00:00 +16°C° 0 mm 3 mps 757 mmHg 52%
    01:00 +16°C° 0 mm 3 mps 757 mmHg 55%
    02:00 +15°C° 0 mm 2 mps 757 mmHg 58%
    03:00 +15°C° 0 mm 2 mps 757 mmHg 61%
    04:00 +15°C° 0 mm 2 mps 757 mmHg 63%
    05:00 +14°C° 0 mm 2 mps 757 mmHg 65%
    06:00 +14°C° 0 mm 2 mps 757 mmHg 67%
    07:00 +14°C° 0 mm 3 mps 757 mmHg 64%
    08:00 +17°C° 0 mm 3 mps 757 mmHg 61%
    09:00 +18°C° 0 mm 3 mps 757 mmHg 58%
    10:00 +19°C° 0 mm 3 mps 757 mmHg 54%
    11:00 +21°C° 0 mm 3 mps 757 mmHg 49%
    12:00 +22°C° 0 mm 3 mps 756 mmHg 45%
    13:00 +22°C° 0 mm 3 mps 756 mmHg 44%
    14:00 +24°C° 0 mm 3 mps 756 mmHg 42%
    15:00 +23°C° 0 mm 4 mps 755 mmHg 41%
    16:00 +22°C° 0 mm 3 mps 755 mmHg 44%
    17:00 +21°C° 0 mm 3 mps 755 mmHg 48%
    18:00 +20°C° 0 mm 3 mps 755 mmHg 51%
    19:00 +19°C° 0 mm 3 mps 755 mmHg 53%
    20:00 +19°C° 0 mm 3 mps 755 mmHg 56%
    21:00 +19°C° 0 mm 3 mps 755 mmHg 58%
    22:00 +18°C° 0 mm 3 mps 755 mmHg 59%
    23:00 +18°C° 0 mm 3 mps 755 mmHg 60%

    24 October, Wednesday

    Time Temperature Precipitation Wind Pressure Humidity
    00:00 +18°C° 0 mm 2 mps 755 mmHg 61%
    01:00 +17°C° 0 mm 2 mps 755 mmHg 63%
    02:00 +16°C° 0 mm 2 mps 755 mmHg 65%
    03:00 +16°C° 0 mm 2 mps 755 mmHg 67%
    04:00 +15°C° 0 mm 2 mps 755 mmHg 70%
    05:00 +15°C° 0 mm 1 mps 755 mmHg 73%
    06:00 +15°C° 0 mm 1 mps 755 mmHg 76%
    07:00 +16°C° 0 mm 1 mps 755 mmHg 72%
    08:00 +18°C° 0 mm 1 mps 755 mmHg 68%
    09:00 +19°C° 0 mm 1 mps 755 mmHg 65%
    10:00 +20°C° 0 mm 1 mps 754 mmHg 60%
    11:00 +22°C° 0 mm 1 mps 753 mmHg 55%
    12:00 +23°C° 0 mm 1 mps 753 mmHg 50%
    13:00 +23°C° 0 mm 1 mps 752 mmHg 48%
    14:00 +24°C° 0 mm 2 mps 751 mmHg 45%
    15:00 +25°C° 0 mm 2 mps 751 mmHg 43%
    16:00 +22°C° 0 mm 3 mps 750 mmHg 45%
    17:00 +21°C° 0 mm 3 mps 750 mmHg 47%
    18:00 +20°C° 0 mm 3 mps 749 mmHg 50%
    19:00 +19°C° 0 mm 3 mps 749 mmHg 50%
    20:00 +19°C° 0 mm 3 mps 748 mmHg 50%
    21:00 +18°C° 0 mm 3 mps 747 mmHg 50%
    22:00 +18°C° 0 mm 4 mps 747 mmHg 52%
    23:00 +17°C° 0 mm 4 mps 746 mmHg 55%
    Show more